Location: Unspecified
(0.0000°N, 0.0000°E)
Time: 03:43:54
(UTC+00:00)

ISS - Visible Passes

Search period start: 03 December 2020 00:00
Search period end: 13 December 2020 00:00
Orbit: 418 x 420 km, 51.6° (Epoch: 03 December)

Date Brightness Start Highest point End Pass type
(mag) Time Alt. Az. Time Alt. Az. Time Alt. Az.
10 Dec -1.4 19:07:42 10° N 19:08:04 12° N 19:08:04 12° N visible
11 Dec -2.0 18:21:12 10° NNE 18:23:06 14° NE 18:25:01 10° E visible
11 Dec -0.9 19:57:21 10° W 19:59:42 18° SW 20:00:10 17° SW visible
12 Dec -2.3 19:08:56 10° NW 19:12:04 39° SW 19:15:15 10° SSE visible
